Weather in Kondrashi

Russia / Volgograd Oblast     49°26′09″N   44°11′05″E
temp.,
°C
wind,
m/s
gust,
m/s
humid.,
%
clouds,
%
prec.,
mm/h
press.,
hPa
HPBL,
m
14 august, sun
sun1400:00+25ne51240100 0.0 1016296
03:00+24ene41138100 0.0 1016307
06:00+24ene51137100 0.0 1016328
09:00+28ene71030100 0.0 1016943
12:00+32ene781899 0.0 10141591
15:00+34ene771596 0.0 10131947
18:00+32ene681774 0.0 10131501
21:00+27ne7132756 0.0 1013343
15 august, mon
mon1500:00+26ene7142999 0.0 1013399
03:00+24ene6123598 0.0 1013265
06:00+23ene6124275 0.0 1014288
09:00+30e810275 0.0 1014828
12:00+35e882085 0.0 10141947
15:00+35e881933 0.0 10132530
18:00+33e782196 0.0 10132476
21:00+28ene9152962 0.0 1015579
16 august, tue
tue1600:00+26ene8152317 0.0 1015517
03:00+22ene6143098 0.0 1016309
06:00+23ene6123498 0.0 1016319
09:00+28e6828100 0.0 1016541
12:00+34e6720100 0.0 10151549
15:00+36e7716100 0.0 10132377
18:00+32ene5918100 0.0 1014270
21:00+27ne91432100 0.1 1015521
17 august, wed
wed1700:00+28ene81629100 0.0 1014681
03:00+28e81622100 0.0 1013511
06:00+26ene7122478 0.0 1013316
09:00+29e8122266 0.0 1013516
12:00+36e10111692 0.0 10111740
15:00+38e910145 0.0 10103255
18:00+36ene8101644 0.0 1009843
21:00+29ene918255 0.0 1009410
18 august, thu
thu1800:00+26e613289 0.0 1009237
03:00+24e51131100 0.0 1009176
06:00+25ese61233100 0.0 1009430
09:00+30sse71128100 0.0 10101132
12:00+34sse81319100 0.0 10092135
15:00+37s91315100 0.0 10073455
18:00+35se61018100 0.0 1007829
21:00+32s71319100 0.0 1009563